Year,Month,Day,Hour,Minute,Value (Times are PST for temperature in C)
2016,04,09,00,00,11.60
2016,04,09,00,01,11.60
2016,04,09,00,02,11.60
2016,04,09,00,03,11.60
2016,04,09,00,04,11.60
2016,04,09,00,05,11.60
2016,04,09,00,06,11.60
2016,04,09,00,07,11.50
2016,04,09,00,08,11.50
2016,04,09,00,09,11.50
2016,04,09,00,10,11.40
2016,04,09,00,11,11.40
2016,04,09,00,12,11.40
2016,04,09,00,13,11.40
2016,04,09,00,14,11.40
2016,04,09,00,15,11.40
2016,04,09,00,16,11.40
2016,04,09,00,17,11.40
2016,04,09,00,18,11.40
2016,04,09,00,19,11.40
2016,04,09,00,20,11.40
2016,04,09,00,21,11.40
2016,04,09,00,22,11.40
2016,04,09,00,23,11.40
2016,04,09,00,24,11.30
2016,04,09,00,25,11.30
2016,04,09,00,26,11.30
2016,04,09,00,27,11.30
2016,04,09,00,28,11.20
2016,04,09,00,29,11.20
2016,04,09,00,30,11.20
2016,04,09,00,31,11.20
2016,04,09,00,32,11.10
2016,04,09,00,33,11.10
2016,04,09,00,34,11.10
2016,04,09,00,35,11.10
2016,04,09,00,36,11.00
2016,04,09,00,37,11.00
2016,04,09,00,38,11.00
2016,04,09,00,39,11.00
2016,04,09,00,40,10.90
2016,04,09,00,41,10.90
2016,04,09,00,42,10.80
2016,04,09,00,43,10.80
2016,04,09,00,44,10.80
2016,04,09,00,45,10.80
2016,04,09,00,46,10.80
2016,04,09,00,47,10.80
2016,04,09,00,48,10.80
2016,04,09,00,49,10.80
2016,04,09,00,50,10.80
2016,04,09,00,51,10.80
2016,04,09,00,52,10.80
2016,04,09,00,53,10.80
2016,04,09,00,54,10.80
2016,04,09,00,55,10.80
2016,04,09,00,56,10.80
2016,04,09,00,57,10.80
2016,04,09,00,58,10.80
2016,04,09,00,59,10.80
2016,04,09,01,00,10.80
2016,04,09,01,01,10.80
2016,04,09,01,02,10.80
2016,04,09,01,03,10.80
2016,04,09,01,04,10.80
2016,04,09,01,05,10.80
2016,04,09,01,06,10.80
2016,04,09,01,07,10.80
2016,04,09,01,08,10.80
2016,04,09,01,09,10.80
2016,04,09,01,10,10.80
2016,04,09,01,11,10.70
2016,04,09,01,12,10.70
2016,04,09,01,13,10.70
2016,04,09,01,14,10.70
2016,04,09,01,15,10.70
2016,04,09,01,16,10.70
2016,04,09,01,17,10.70
2016,04,09,01,18,10.60
2016,04,09,01,19,10.60
2016,04,09,01,20,10.60
2016,04,09,01,21,10.60
2016,04,09,01,22,10.60
2016,04,09,01,23,10.60
2016,04,09,01,24,10.50
2016,04,09,01,25,10.50
2016,04,09,01,26,10.50
2016,04,09,01,27,10.50
2016,04,09,01,28,10.50
2016,04,09,01,29,10.40
2016,04,09,01,30,10.40
2016,04,09,01,31,10.40
2016,04,09,01,32,10.40
2016,04,09,01,33,10.40
2016,04,09,01,34,10.40
2016,04,09,01,35,10.40
2016,04,09,01,36,10.40
2016,04,09,01,37,10.40
2016,04,09,01,38,10.30
2016,04,09,01,39,10.40
2016,04,09,01,40,10.30
2016,04,09,01,41,10.30
2016,04,09,01,42,10.30
2016,04,09,01,43,10.30
2016,04,09,01,44,10.30
2016,04,09,01,45,10.30
2016,04,09,01,46,10.30
2016,04,09,01,47,10.30
2016,04,09,01,48,10.30
2016,04,09,01,49,10.30
2016,04,09,01,50,10.30
2016,04,09,01,51,10.20
2016,04,09,01,52,10.20
2016,04,09,01,53,10.20
2016,04,09,01,54,10.20
2016,04,09,01,55,10.10
2016,04,09,01,56,10.10
2016,04,09,01,57,10.10
2016,04,09,01,58,10.20
2016,04,09,01,59,10.20
2016,04,09,02,00,10.20
2016,04,09,02,01,10.20
2016,04,09,02,02,10.20
2016,04,09,02,03,10.20
2016,04,09,02,04,10.30
2016,04,09,02,05,10.30
2016,04,09,02,06,10.30
2016,04,09,02,07,10.40
2016,04,09,02,08,10.40
2016,04,09,02,09,10.40
2016,04,09,02,10,10.40
2016,04,09,02,11,10.40
2016,04,09,02,12,10.40
2016,04,09,02,13,10.50
2016,04,09,02,14,10.50
2016,04,09,02,15,10.50
2016,04,09,02,16,10.60
2016,04,09,02,17,10.60
2016,04,09,02,18,10.60
2016,04,09,02,19,10.60
2016,04,09,02,20,10.60
2016,04,09,02,21,10.60
2016,04,09,02,22,10.60
2016,04,09,02,23,10.60
2016,04,09,02,24,10.50
2016,04,09,02,25,10.50
2016,04,09,02,26,10.60
2016,04,09,02,27,10.60
2016,04,09,02,28,10.60
2016,04,09,02,29,10.50
2016,04,09,02,30,10.50
2016,04,09,02,31,10.50
2016,04,09,02,32,10.40
2016,04,09,02,33,10.40
2016,04,09,02,34,10.40
2016,04,09,02,35,10.40
2016,04,09,02,36,10.30
2016,04,09,02,37,10.30
2016,04,09,02,38,10.30
2016,04,09,02,39,10.30
2016,04,09,02,40,10.30
2016,04,09,02,41,10.30
2016,04,09,02,42,10.30
2016,04,09,02,43,10.30
2016,04,09,02,44,10.30
2016,04,09,02,45,10.30
2016,04,09,02,46,10.30
2016,04,09,02,47,10.30
2016,04,09,02,48,10.30
2016,04,09,02,49,10.30
2016,04,09,02,50,10.30
2016,04,09,02,51,10.30
2016,04,09,02,52,10.30
2016,04,09,02,53,10.20
2016,04,09,02,54,10.20
2016,04,09,02,55,10.20
2016,04,09,02,56,10.20
2016,04,09,02,57,10.20
2016,04,09,02,58,10.20
2016,04,09,02,59,10.20
2016,04,09,03,00,10.20
2016,04,09,03,01,10.20
2016,04,09,03,02,10.20
2016,04,09,03,03,10.20
2016,04,09,03,04,10.20
2016,04,09,03,05,10.20
2016,04,09,03,06,10.20
2016,04,09,03,07,10.20
2016,04,09,03,08,10.10
2016,04,09,03,09,10.10
2016,04,09,03,10,10.10
2016,04,09,03,11,10.10
2016,04,09,03,12,10.10
2016,04,09,03,13,10.10
2016,04,09,03,14,10.10
2016,04,09,03,15,10.10
2016,04,09,03,16,10.10
2016,04,09,03,17,10.10
2016,04,09,03,18,10.10
2016,04,09,03,19,10.10
2016,04,09,03,20,10.00
2016,04,09,03,21,10.00
2016,04,09,03,22,10.00
2016,04,09,03,23,10.00
2016,04,09,03,24,10.00
2016,04,09,03,25,9.90
2016,04,09,03,26,9.90
2016,04,09,03,27,9.90
2016,04,09,03,28,9.80
2016,04,09,03,29,9.80
2016,04,09,03,30,9.80
2016,04,09,03,31,9.70
2016,04,09,03,32,9.70
2016,04,09,03,33,9.70
2016,04,09,03,34,9.70
2016,04,09,03,35,9.60
2016,04,09,03,36,9.60
2016,04,09,03,37,9.60
2016,04,09,03,38,9.60
2016,04,09,03,39,9.50
2016,04,09,03,40,9.50
2016,04,09,03,41,9.50
2016,04,09,03,42,9.40
2016,04,09,03,43,9.40
2016,04,09,03,44,9.40
2016,04,09,03,45,9.40
2016,04,09,03,46,9.40
2016,04,09,03,47,9.30
2016,04,09,03,48,9.30
2016,04,09,03,49,9.30
2016,04,09,03,50,9.30
2016,04,09,03,51,9.20
2016,04,09,03,52,9.20
2016,04,09,03,53,9.20
2016,04,09,03,54,9.20
2016,04,09,03,55,9.10
2016,04,09,03,56,9.10
2016,04,09,03,57,9.10
2016,04,09,03,58,9.00
2016,04,09,03,59,9.00
2016,04,09,04,00,9.00
2016,04,09,04,01,8.90
2016,04,09,04,02,8.90
2016,04,09,04,03,8.90
2016,04,09,04,04,8.90
2016,04,09,04,05,8.90
2016,04,09,04,06,8.90
2016,04,09,04,07,8.90
2016,04,09,04,08,8.80
2016,04,09,04,09,8.80
2016,04,09,04,10,8.80
2016,04,09,04,11,8.80
2016,04,09,04,12,8.80
2016,04,09,04,13,8.80
2016,04,09,04,14,8.80
2016,04,09,04,15,8.80
2016,04,09,04,16,8.80
2016,04,09,04,17,8.80
2016,04,09,04,18,8.80
2016,04,09,04,19,8.80
2016,04,09,04,20,8.80
2016,04,09,04,21,8.80
2016,04,09,04,22,8.80
2016,04,09,04,23,8.80
2016,04,09,04,24,8.80
2016,04,09,04,25,8.80
2016,04,09,04,26,8.80
2016,04,09,04,27,8.80
2016,04,09,04,28,8.70
2016,04,09,04,29,8.70
2016,04,09,04,30,8.70
2016,04,09,04,31,8.70
2016,04,09,04,32,8.80
2016,04,09,04,33,8.70
2016,04,09,04,34,8.70
2016,04,09,04,35,8.70
2016,04,09,04,36,8.70
2016,04,09,04,37,8.70
2016,04,09,04,38,8.70
2016,04,09,04,39,8.70
2016,04,09,04,40,8.70
2016,04,09,04,41,8.70
2016,04,09,04,42,8.70
2016,04,09,04,43,8.70
2016,04,09,04,44,8.70
2016,04,09,04,45,8.70
2016,04,09,04,46,8.70
2016,04,09,04,47,8.70
2016,04,09,04,48,8.70
2016,04,09,04,49,8.70
2016,04,09,04,50,8.70
2016,04,09,04,51,8.70
2016,04,09,04,52,8.70
2016,04,09,04,53,8.70
2016,04,09,04,54,8.70
2016,04,09,04,55,8.70
2016,04,09,04,56,8.70
2016,04,09,04,57,8.70
2016,04,09,04,58,8.70
2016,04,09,04,59,8.70
2016,04,09,05,00,8.70
2016,04,09,05,01,8.70
2016,04,09,05,02,8.70
2016,04,09,05,03,8.70
2016,04,09,05,04,8.70
2016,04,09,05,05,8.70
2016,04,09,05,06,8.70
2016,04,09,05,07,8.60
2016,04,09,05,08,8.60
2016,04,09,05,09,8.60
2016,04,09,05,10,8.60
2016,04,09,05,11,8.60
2016,04,09,05,12,8.60
2016,04,09,05,13,8.60
2016,04,09,05,14,8.60
2016,04,09,05,15,8.60
2016,04,09,05,16,8.60
2016,04,09,05,17,8.60
2016,04,09,05,18,8.60
2016,04,09,05,19,8.60
2016,04,09,05,20,8.60
2016,04,09,05,21,8.60
2016,04,09,05,22,8.60
2016,04,09,05,23,8.60
2016,04,09,05,24,8.60
2016,04,09,05,25,8.60
2016,04,09,05,26,8.60
2016,04,09,05,27,8.60
2016,04,09,05,28,8.60
2016,04,09,05,29,8.60
2016,04,09,05,30,8.50
2016,04,09,05,31,8.50
2016,04,09,05,32,8.50
2016,04,09,05,33,8.50
2016,04,09,05,34,8.50
2016,04,09,05,35,8.50
2016,04,09,05,36,8.50
2016,04,09,05,37,8.50
2016,04,09,05,38,8.50
2016,04,09,05,39,8.50
2016,04,09,05,40,8.50
2016,04,09,05,41,8.50
2016,04,09,05,42,8.50
2016,04,09,05,43,8.60
2016,04,09,05,44,8.60
2016,04,09,05,45,8.60
2016,04,09,05,46,8.60
2016,04,09,05,47,8.60
2016,04,09,05,48,8.60
2016,04,09,05,49,8.60
2016,04,09,05,50,8.60
2016,04,09,05,51,8.60
2016,04,09,05,52,8.60
2016,04,09,05,53,8.60
2016,04,09,05,54,8.60
2016,04,09,05,55,8.60
2016,04,09,05,56,8.60
2016,04,09,05,57,8.60
2016,04,09,05,58,8.60
2016,04,09,05,59,8.60
2016,04,09,06,00,8.60
2016,04,09,06,01,8.60
2016,04,09,06,02,8.60
2016,04,09,06,03,8.60
2016,04,09,06,04,8.60
2016,04,09,06,05,8.50
2016,04,09,06,06,8.50
2016,04,09,06,07,8.50
2016,04,09,06,08,8.50
2016,04,09,06,09,8.50
2016,04,09,06,10,8.50
2016,04,09,06,11,8.50
2016,04,09,06,12,8.50
2016,04,09,06,13,8.50
2016,04,09,06,14,8.50
2016,04,09,06,15,8.50
2016,04,09,06,16,8.50
2016,04,09,06,17,8.50
2016,04,09,06,18,8.50
2016,04,09,06,19,8.40
2016,04,09,06,20,8.40
2016,04,09,06,21,8.40
2016,04,09,06,22,8.40
2016,04,09,06,23,8.40
2016,04,09,06,24,8.40
2016,04,09,06,25,8.40
2016,04,09,06,26,8.40
2016,04,09,06,27,8.40
2016,04,09,06,28,8.40
2016,04,09,06,29,8.30
2016,04,09,06,30,8.30
2016,04,09,06,31,8.30
2016,04,09,06,32,8.30
2016,04,09,06,33,8.30
2016,04,09,06,34,8.30
2016,04,09,06,35,8.30
2016,04,09,06,36,8.30
2016,04,09,06,37,8.30
2016,04,09,06,38,8.30
2016,04,09,06,39,8.30
2016,04,09,06,40,8.30
2016,04,09,06,41,8.20
2016,04,09,06,42,8.20
2016,04,09,06,43,8.20
2016,04,09,06,44,8.20
2016,04,09,06,45,8.20
2016,04,09,06,46,8.20
2016,04,09,06,47,8.20
2016,04,09,06,48,8.20
2016,04,09,06,49,8.20
2016,04,09,06,50,8.10
2016,04,09,06,51,8.10
2016,04,09,06,52,8.10
2016,04,09,06,53,8.10
2016,04,09,06,54,8.10
2016,04,09,06,55,8.10
2016,04,09,06,56,8.10
2016,04,09,06,57,8.10
2016,04,09,06,58,8.00
2016,04,09,06,59,8.00
2016,04,09,07,00,8.00
2016,04,09,07,01,8.00
2016,04,09,07,02,8.00
2016,04,09,07,03,8.00
2016,04,09,07,04,8.00
2016,04,09,07,05,8.00
2016,04,09,07,06,8.10
2016,04,09,07,07,8.10
2016,04,09,07,08,8.10
2016,04,09,07,09,8.10
2016,04,09,07,10,8.10
2016,04,09,07,11,8.10
2016,04,09,07,12,8.10
2016,04,09,07,13,8.10
2016,04,09,07,14,8.20
2016,04,09,07,15,8.20
2016,04,09,07,16,8.20
2016,04,09,07,17,8.20
2016,04,09,07,18,8.30
2016,04,09,07,19,8.30
2016,04,09,07,20,8.30
2016,04,09,07,21,8.30
2016,04,09,07,22,8.30
2016,04,09,07,23,8.30
2016,04,09,07,24,8.30
2016,04,09,07,25,8.30
2016,04,09,07,26,8.30
2016,04,09,07,27,8.30
2016,04,09,07,28,8.30
2016,04,09,07,29,8.30
2016,04,09,07,30,8.30
2016,04,09,07,31,8.30
2016,04,09,07,32,8.30
2016,04,09,07,33,8.30
2016,04,09,07,34,8.30
2016,04,09,07,35,8.30
2016,04,09,07,36,8.30
2016,04,09,07,37,8.30
2016,04,09,07,38,8.30
2016,04,09,07,39,8.30
2016,04,09,07,40,8.30
2016,04,09,07,41,8.30
2016,04,09,07,42,8.30
2016,04,09,07,43,8.30
2016,04,09,07,44,8.30
2016,04,09,07,45,8.30
2016,04,09,07,46,8.40
2016,04,09,07,47,8.40
2016,04,09,07,48,8.40
2016,04,09,07,49,8.40
2016,04,09,07,50,8.40
2016,04,09,07,51,8.40
2016,04,09,07,52,8.40
2016,04,09,07,53,8.40
2016,04,09,07,54,8.50
2016,04,09,07,55,8.50
2016,04,09,07,56,8.50
2016,04,09,07,57,8.50
2016,04,09,07,58,8.60
2016,04,09,07,59,8.60
2016,04,09,08,00,8.60
2016,04,09,08,01,8.70
2016,04,09,08,02,8.70
2016,04,09,08,03,8.70
2016,04,09,08,04,8.70
2016,04,09,08,05,8.80
2016,04,09,08,06,8.80
2016,04,09,08,07,8.80
2016,04,09,08,08,8.80
2016,04,09,08,09,8.80
2016,04,09,08,10,8.80
2016,04,09,08,11,8.80
2016,04,09,08,12,8.80
2016,04,09,08,13,8.80
2016,04,09,08,14,8.80
2016,04,09,08,15,8.80
2016,04,09,08,16,8.80
2016,04,09,08,17,8.90
2016,04,09,08,18,8.90
2016,04,09,08,19,8.90
2016,04,09,08,20,8.90
2016,04,09,08,21,8.90
2016,04,09,08,22,8.90
2016,04,09,08,23,8.90
2016,04,09,08,24,8.90
2016,04,09,08,25,8.90
2016,04,09,08,26,9.00
2016,04,09,08,27,9.00
2016,04,09,08,28,9.10
2016,04,09,08,29,9.10
2016,04,09,08,30,9.10
2016,04,09,08,31,9.10
2016,04,09,08,32,9.10
2016,04,09,08,33,9.10
2016,04,09,08,34,9.20
2016,04,09,08,35,9.20
2016,04,09,08,36,9.30
2016,04,09,08,37,9.30
2016,04,09,08,38,9.30
2016,04,09,08,39,9.30
2016,04,09,08,40,9.30
2016,04,09,08,41,9.30
2016,04,09,08,42,9.40
2016,04,09,08,43,9.40
2016,04,09,08,44,9.40
2016,04,09,08,45,9.40
2016,04,09,08,46,9.40
2016,04,09,08,47,9.40
2016,04,09,08,48,9.50
2016,04,09,08,49,9.50
2016,04,09,08,50,9.60
2016,04,09,08,51,9.50
2016,04,09,08,52,9.50
2016,04,09,08,53,9.50
2016,04,09,08,54,9.40
2016,04,09,08,55,9.40
2016,04,09,08,56,9.40
2016,04,09,08,57,9.40
2016,04,09,08,58,9.40
2016,04,09,08,59,9.40
2016,04,09,09,00,9.40
2016,04,09,09,01,9.40
2016,04,09,09,02,9.40
2016,04,09,09,03,9.40
2016,04,09,09,04,9.40
2016,04,09,09,05,9.40
2016,04,09,09,06,9.50
2016,04,09,09,07,9.50
2016,04,09,09,08,9.50
2016,04,09,09,09,9.50
2016,04,09,09,10,9.50
2016,04,09,09,11,9.50
2016,04,09,09,12,9.50
2016,04,09,09,13,9.50
2016,04,09,09,14,9.60
2016,04,09,09,15,9.60
2016,04,09,09,16,9.60
2016,04,09,09,17,9.60
2016,04,09,09,18,9.70
2016,04,09,09,19,9.70
2016,04,09,09,20,9.80
2016,04,09,09,21,9.80
2016,04,09,09,22,9.90
2016,04,09,09,23,10.00
2016,04,09,09,24,10.10
2016,04,09,09,25,10.10
2016,04,09,09,26,10.20
2016,04,09,09,27,10.20
2016,04,09,09,28,10.20
2016,04,09,09,29,10.20
2016,04,09,09,30,10.20
2016,04,09,09,31,10.20
2016,04,09,09,32,10.20
2016,04,09,09,33,10.20
2016,04,09,09,34,10.20
2016,04,09,09,35,10.30
2016,04,09,09,36,10.30
2016,04,09,09,37,10.30
2016,04,09,09,38,10.40
2016,04,09,09,39,10.40
2016,04,09,09,40,10.50
2016,04,09,09,41,10.60
2016,04,09,09,42,10.60
2016,04,09,09,43,10.70
2016,04,09,09,44,10.70
2016,04,09,09,45,10.70
2016,04,09,09,46,10.70
2016,04,09,09,47,10.70
2016,04,09,09,48,10.70
2016,04,09,09,49,10.70
2016,04,09,09,50,10.70
2016,04,09,09,51,10.70
2016,04,09,09,52,10.80
2016,04,09,09,53,10.80
2016,04,09,09,54,10.90
2016,04,09,09,55,10.90
2016,04,09,09,56,10.90
2016,04,09,09,57,10.80
2016,04,09,09,58,10.80
2016,04,09,09,59,10.80
2016,04,09,10,00,10.80
2016,04,09,10,01,10.80
2016,04,09,10,02,10.80
2016,04,09,10,03,10.80
2016,04,09,10,04,10.80
2016,04,09,10,05,10.80
2016,04,09,10,06,10.80
2016,04,09,10,07,10.90
2016,04,09,10,08,10.90
2016,04,09,10,09,10.90
2016,04,09,10,10,10.90
2016,04,09,10,11,10.90
2016,04,09,10,12,10.80
2016,04,09,10,13,10.80
2016,04,09,10,14,10.70
2016,04,09,10,15,10.70
2016,04,09,10,16,10.70
2016,04,09,10,17,10.60
2016,04,09,10,18,10.60
2016,04,09,10,19,10.50
2016,04,09,10,20,10.50
2016,04,09,10,21,10.40
2016,04,09,10,22,10.40
2016,04,09,10,23,10.40
2016,04,09,10,24,10.40
2016,04,09,10,25,10.40
2016,04,09,10,26,10.40
2016,04,09,10,27,10.40
2016,04,09,10,28,10.30
2016,04,09,10,29,10.30
2016,04,09,10,30,10.30
2016,04,09,10,31,10.30
2016,04,09,10,32,10.30
2016,04,09,10,33,10.30
2016,04,09,10,34,10.30
2016,04,09,10,35,10.40
2016,04,09,10,36,10.40
2016,04,09,10,37,10.30
2016,04,09,10,38,10.30
2016,04,09,10,39,10.30
2016,04,09,10,40,10.30
2016,04,09,10,41,10.30
2016,04,09,10,42,10.30
2016,04,09,10,43,10.30
2016,04,09,10,44,10.20
2016,04,09,10,45,10.20
2016,04,09,10,46,10.30
2016,04,09,10,47,10.30
2016,04,09,10,48,10.20
2016,04,09,10,49,10.20
2016,04,09,10,50,10.30
2016,04,09,10,51,10.30
2016,04,09,10,52,10.30
2016,04,09,10,53,10.30
2016,04,09,10,54,10.30
2016,04,09,10,55,10.30
2016,04,09,10,56,10.30
2016,04,09,10,57,10.30
2016,04,09,10,58,10.30
2016,04,09,10,59,10.40
2016,04,09,11,00,10.40
2016,04,09,11,01,10.40
2016,04,09,11,02,10.40
2016,04,09,11,03,10.30
2016,04,09,11,04,10.30
2016,04,09,11,05,10.30
2016,04,09,11,06,10.30
2016,04,09,11,07,10.30
2016,04,09,11,08,10.30
2016,04,09,11,09,10.40
2016,04,09,11,10,10.50
2016,04,09,11,11,10.60
2016,04,09,11,12,10.70
2016,04,09,11,13,10.70
2016,04,09,11,14,10.70
2016,04,09,11,15,10.70
2016,04,09,11,16,10.80
2016,04,09,11,17,10.90
2016,04,09,11,18,10.90
2016,04,09,11,19,11.00
2016,04,09,11,20,11.10
2016,04,09,11,21,11.00
2016,04,09,11,22,11.00
2016,04,09,11,23,11.00
2016,04,09,11,24,10.90
2016,04,09,11,25,10.80
2016,04,09,11,26,10.80
2016,04,09,11,27,10.80
2016,04,09,11,28,10.80
2016,04,09,11,29,10.80
2016,04,09,11,30,10.80
2016,04,09,11,31,10.80
2016,04,09,11,32,10.80
2016,04,09,11,33,10.80
2016,04,09,11,34,10.80
2016,04,09,11,35,10.80
2016,04,09,11,36,10.80
2016,04,09,11,37,10.90
2016,04,09,11,38,10.90
2016,04,09,11,39,10.90
2016,04,09,11,40,11.00
2016,04,09,11,41,11.00
2016,04,09,11,42,11.00
2016,04,09,11,43,10.90
2016,04,09,11,44,10.80
2016,04,09,11,45,10.80
2016,04,09,11,46,10.80
2016,04,09,11,47,10.80
2016,04,09,11,48,10.80
2016,04,09,11,49,10.90
2016,04,09,11,50,10.90
2016,04,09,11,51,10.90
2016,04,09,11,52,10.90
2016,04,09,11,53,10.90
2016,04,09,11,54,10.90
2016,04,09,11,55,10.90
2016,04,09,11,56,10.90
2016,04,09,11,57,11.00
2016,04,09,11,58,11.00
2016,04,09,11,59,11.10
2016,04,09,12,00,11.10
2016,04,09,12,01,11.20
2016,04,09,12,02,11.30
2016,04,09,12,03,11.30
2016,04,09,12,04,11.40
2016,04,09,12,05,11.40
2016,04,09,12,06,11.40
2016,04,09,12,07,11.40
2016,04,09,12,08,11.40
2016,04,09,12,09,11.50
2016,04,09,12,10,11.50
2016,04,09,12,11,11.60
2016,04,09,12,12,11.60
2016,04,09,12,13,11.80
2016,04,09,12,14,11.80
2016,04,09,12,15,11.80
2016,04,09,12,16,11.90
2016,04,09,12,17,12.00
2016,04,09,12,18,12.10
2016,04,09,12,19,12.30
2016,04,09,12,20,12.40
2016,04,09,12,21,12.50
2016,04,09,12,22,12.60
2016,04,09,12,23,12.60
2016,04,09,12,24,12.60
2016,04,09,12,25,12.60
2016,04,09,12,26,12.60
2016,04,09,12,27,12.60
2016,04,09,12,28,12.60
2016,04,09,12,29,12.50
2016,04,09,12,30,12.50
2016,04,09,12,31,12.50
2016,04,09,12,32,12.50
2016,04,09,12,33,12.50
2016,04,09,12,34,12.60
2016,04,09,12,35,12.60
2016,04,09,12,36,12.50
2016,04,09,12,37,12.40
2016,04,09,12,38,12.30
2016,04,09,12,39,12.30
2016,04,09,12,40,12.20
2016,04,09,12,41,12.20
2016,04,09,12,42,12.30
2016,04,09,12,43,12.30
2016,04,09,12,44,12.30
2016,04,09,12,45,12.20
2016,04,09,12,46,12.20
2016,04,09,12,47,12.20
2016,04,09,12,48,12.20
2016,04,09,12,49,12.20
2016,04,09,12,50,12.20
2016,04,09,12,51,12.30
2016,04,09,12,52,12.30
2016,04,09,12,53,12.30
2016,04,09,12,54,12.40
2016,04,09,12,55,12.50
2016,04,09,12,56,12.60
2016,04,09,12,57,12.70
2016,04,09,12,58,12.80
2016,04,09,12,59,12.80
2016,04,09,13,00,12.80
2016,04,09,13,01,12.90
2016,04,09,13,02,12.90
2016,04,09,13,03,12.90
2016,04,09,13,04,12.80
2016,04,09,13,05,12.70
2016,04,09,13,06,12.60
2016,04,09,13,07,12.60
2016,04,09,13,08,12.60
2016,04,09,13,09,12.60
2016,04,09,13,10,12.50
2016,04,09,13,11,12.40
2016,04,09,13,12,12.40
2016,04,09,13,13,12.40
2016,04,09,13,14,12.50
2016,04,09,13,15,12.60
2016,04,09,13,16,12.70
2016,04,09,13,17,12.70
2016,04,09,13,18,12.70
2016,04,09,13,19,12.80
2016,04,09,13,20,12.80
2016,04,09,13,21,12.80
2016,04,09,13,22,12.80
2016,04,09,13,23,12.80
2016,04,09,13,24,12.90
2016,04,09,13,25,13.00
2016,04,09,13,26,13.10
2016,04,09,13,27,13.10
2016,04,09,13,28,13.20
2016,04,09,13,29,13.20
2016,04,09,13,30,13.20
2016,04,09,13,31,13.20
2016,04,09,13,32,13.30
2016,04,09,13,33,13.30
2016,04,09,13,34,13.40
2016,04,09,13,35,13.50
2016,04,09,13,36,13.60
2016,04,09,13,37,13.60
2016,04,09,13,38,13.60
2016,04,09,13,39,13.60
2016,04,09,13,40,13.50
2016,04,09,13,41,13.60
2016,04,09,13,42,13.60
2016,04,09,13,43,13.70
2016,04,09,13,44,13.80
2016,04,09,13,45,13.90
2016,04,09,13,46,13.90
2016,04,09,13,47,14.00
2016,04,09,13,48,14.00
2016,04,09,13,49,14.10
2016,04,09,13,50,14.10
2016,04,09,13,51,14.10
2016,04,09,13,52,14.10
2016,04,09,13,53,14.10
2016,04,09,13,54,14.10
2016,04,09,13,55,14.10
2016,04,09,13,56,14.10
2016,04,09,13,57,14.20
2016,04,09,13,58,14.30
2016,04,09,13,59,14.30
2016,04,09,14,00,14.30
2016,04,09,14,01,14.40
2016,04,09,14,02,14.40
2016,04,09,14,03,14.30
2016,04,09,14,04,14.30
2016,04,09,14,05,14.40
2016,04,09,14,06,14.40
2016,04,09,14,07,14.40
2016,04,09,14,08,14.40
2016,04,09,14,09,14.30
2016,04,09,14,10,14.40
2016,04,09,14,11,14.50
2016,04,09,14,12,14.50
2016,04,09,14,13,14.50
2016,04,09,14,14,14.60
2016,04,09,14,15,14.60
2016,04,09,14,16,14.70
2016,04,09,14,17,14.70
2016,04,09,14,18,14.70
2016,04,09,14,19,14.60
2016,04,09,14,20,14.70
2016,04,09,14,21,14.70
2016,04,09,14,22,14.70
2016,04,09,14,23,14.70
2016,04,09,14,24,14.70
2016,04,09,14,25,14.70
2016,04,09,14,26,14.60
2016,04,09,14,27,14.50
2016,04,09,14,28,14.50
2016,04,09,14,29,14.60
2016,04,09,14,30,14.60
2016,04,09,14,31,14.70
2016,04,09,14,32,14.70
2016,04,09,14,33,14.60
2016,04,09,14,34,14.60
2016,04,09,14,35,14.60
2016,04,09,14,36,14.70
2016,04,09,14,37,14.80
2016,04,09,14,38,14.80
2016,04,09,14,39,14.80
2016,04,09,14,40,14.90
2016,04,09,14,41,15.00
2016,04,09,14,42,15.00
2016,04,09,14,43,15.00
2016,04,09,14,44,15.00
2016,04,09,14,45,15.00
2016,04,09,14,46,15.10
2016,04,09,14,47,15.10
2016,04,09,14,48,15.10
2016,04,09,14,49,15.10
2016,04,09,14,50,15.10
2016,04,09,14,51,15.10
2016,04,09,14,52,15.00
2016,04,09,14,53,15.00
2016,04,09,14,54,15.00
2016,04,09,14,55,14.90
2016,04,09,14,56,14.80
2016,04,09,14,57,14.80
2016,04,09,14,58,14.80
2016,04,09,14,59,14.90
2016,04,09,15,00,14.90
2016,04,09,15,01,15.00
2016,04,09,15,02,15.00
2016,04,09,15,03,15.00
2016,04,09,15,04,15.00
2016,04,09,15,05,15.00
2016,04,09,15,06,15.00
2016,04,09,15,07,15.00
2016,04,09,15,08,15.00
2016,04,09,15,09,14.90
2016,04,09,15,10,14.90
2016,04,09,15,11,15.00
2016,04,09,15,12,15.00
2016,04,09,15,13,15.00
2016,04,09,15,14,15.00
2016,04,09,15,15,15.00
2016,04,09,15,16,15.00
2016,04,09,15,17,15.00
2016,04,09,15,18,15.00
2016,04,09,15,19,15.10
2016,04,09,15,20,15.10
2016,04,09,15,21,15.00
2016,04,09,15,22,15.00
2016,04,09,15,23,15.00
2016,04,09,15,24,15.00
2016,04,09,15,25,15.00
2016,04,09,15,26,15.00
2016,04,09,15,27,15.00
2016,04,09,15,28,15.00
2016,04,09,15,29,15.00
2016,04,09,15,30,15.00
2016,04,09,15,31,15.00
2016,04,09,15,32,15.00
2016,04,09,15,33,15.00
2016,04,09,15,34,15.10
2016,04,09,15,35,15.20
2016,04,09,15,36,15.20
2016,04,09,15,37,15.20
2016,04,09,15,38,15.30
2016,04,09,15,39,15.40
2016,04,09,15,40,15.50
2016,04,09,15,41,15.50
2016,04,09,15,42,15.50
2016,04,09,15,43,15.50
2016,04,09,15,44,15.50
2016,04,09,15,45,15.50
2016,04,09,15,46,15.50
2016,04,09,15,47,15.60
2016,04,09,15,48,15.50
2016,04,09,15,49,15.50
2016,04,09,15,50,15.50
2016,04,09,15,51,15.50
2016,04,09,15,52,15.50
2016,04,09,15,53,15.60
2016,04,09,15,54,15.60
2016,04,09,15,55,15.70
2016,04,09,15,56,15.80
2016,04,09,15,57,15.80
2016,04,09,15,58,15.90
2016,04,09,15,59,15.90
2016,04,09,16,00,15.90
2016,04,09,16,01,15.90
2016,04,09,16,02,15.90
2016,04,09,16,03,15.90
2016,04,09,16,04,15.90
2016,04,09,16,05,15.90
2016,04,09,16,06,15.90
2016,04,09,16,07,16.00
2016,04,09,16,08,16.00
2016,04,09,16,09,16.00
2016,04,09,16,10,16.00
2016,04,09,16,11,16.00
2016,04,09,16,12,16.00
2016,04,09,16,13,16.00
2016,04,09,16,14,16.10
2016,04,09,16,15,16.10
2016,04,09,16,16,16.10
2016,04,09,16,17,16.20
2016,04,09,16,18,16.20
2016,04,09,16,19,16.20
2016,04,09,16,20,16.20
2016,04,09,16,21,16.10
2016,04,09,16,22,16.00
2016,04,09,16,23,16.00
2016,04,09,16,24,16.00
2016,04,09,16,25,16.00
2016,04,09,16,26,16.10
2016,04,09,16,27,16.10
2016,04,09,16,28,16.10
2016,04,09,16,29,16.20
2016,04,09,16,30,16.30
2016,04,09,16,31,16.30
2016,04,09,16,32,16.30
2016,04,09,16,33,16.30
2016,04,09,16,34,16.40
2016,04,09,16,35,16.40
2016,04,09,16,36,16.40
2016,04,09,16,37,16.40
2016,04,09,16,38,16.40
2016,04,09,16,39,16.30
2016,04,09,16,40,16.30
2016,04,09,16,41,16.20
2016,04,09,16,42,16.20
2016,04,09,16,43,16.20
2016,04,09,16,44,16.20
2016,04,09,16,45,16.20
2016,04,09,16,46,16.20
2016,04,09,16,47,16.20
2016,04,09,16,48,16.20
2016,04,09,16,49,16.20
2016,04,09,16,50,16.10
2016,04,09,16,51,16.10
2016,04,09,16,52,16.00
2016,04,09,16,53,16.00
2016,04,09,16,54,15.90
2016,04,09,16,55,15.80
2016,04,09,16,56,15.80
2016,04,09,16,57,15.80
2016,04,09,16,58,15.90
2016,04,09,16,59,15.90
2016,04,09,17,00,15.90
2016,04,09,17,01,15.90
2016,04,09,17,02,16.00
2016,04,09,17,03,15.90
2016,04,09,17,04,15.90
2016,04,09,17,05,15.80
2016,04,09,17,06,15.80
2016,04,09,17,07,15.70
2016,04,09,17,08,15.70
2016,04,09,17,09,15.60
2016,04,09,17,10,15.60
2016,04,09,17,11,15.60
2016,04,09,17,12,15.70
2016,04,09,17,13,15.70
2016,04,09,17,14,15.70
2016,04,09,17,15,15.80
2016,04,09,17,16,15.80
2016,04,09,17,17,15.90
2016,04,09,17,18,15.90
2016,04,09,17,19,15.90
2016,04,09,17,20,15.90
2016,04,09,17,21,15.90
2016,04,09,17,22,15.80
2016,04,09,17,23,15.80
2016,04,09,17,24,15.80
2016,04,09,17,25,15.80
2016,04,09,17,26,15.80
2016,04,09,17,27,15.80
2016,04,09,17,28,15.80
2016,04,09,17,29,15.80
2016,04,09,17,30,15.80
2016,04,09,17,31,15.90
2016,04,09,17,32,15.90
2016,04,09,17,33,16.00
2016,04,09,17,34,16.00
2016,04,09,17,35,15.90